OpenBCM V1.13 (Linux)

Packet Radio Mailbox

DB0FHN

[JN59NK Nuernberg]

 Login: GUEST





  
UA9FBV > KEPS     08.10.04 06:17l 165 Lines 7767 Bytes #999 (0) @ AMSAT
BID : ORB04281.N
Read: GUEST DL7NDR
Subj: 2Line Orbital Elements 04281.AMSAT
Path: DB0FHN<DB0RGB<OK0PPL<DB0RES<ER3KAZ<UA9FBV
Sent: 041008/0406Z @:UA9FBV.PRM.RUS.AS #:5021 [Perm] GATEWAY $:ORB04281.N
From: UA9FBV@UA9FBV.PRM.RUS.AS
To  : KEPS@AMSAT


HR AMSAT ORBITAL ELEMENTS FOR AMATEUR SATELLITES IN NASA FORMAT
FROM WA5QGD FORT WORTH,TX October 7, 2004
SEND SUBSCRIBE/UNSUBSCRIBE TO majordomo@amsat.org ONLY
BID: ORB04281.N

DECODE 2-LINE ELSETS WITH THE FOLLOWING KEY:
1 AAAAAU 00  0  0 BBBBB.BBBBBBBB  .CCCCCCCC  00000-0  00000-0 0  DDDZ
2 AAAAA EEE.EEEE FFF.FFFF GGGGGGG HHH.HHHH III.IIII JJ.JJJJJJJJKKKKKZ
KEY: A-CATALOGNUM B-EPOCHTIME C-DECAY D-ELSETNUM E-INCLINATION F-RAAN
G-ECCENTRICITY H-ARGPERIGEE I-MNANOM J-MNMOTION K-ORBITNUM Z-CHECKSUM

TO ALL RADIO AMATEURS BT

AO-07
1 07530U 74089B   04280.52714277 -.00000029  00000-0  10000-3 0  3307
2 07530 101.6690 325.4723 0012102   7.3244 352.8005 12.53569009367865
AO-10
1 14129U 83058B   04279.85138521 -.00000336  00000-0  10000-3 0  1096
2 14129  26.6762  68.1668 6031159 129.8320 301.1780  2.05870017160291
UO-11
1 14781U 84021B   04281.41133130  .00000636  00000-0  93368-4 0  6015
2 14781  98.1865 268.1656 0010528  92.4086 267.8342 14.79014359104436
RS-10/11
1 18129U 87054A   04281.46932056  .00000013  00000-0 -18831-5 0  5127
2 18129  82.9212  65.0613 0012435  15.9372 344.2168 13.72745242866409
FO-20
1 20480U 90013C   04280.23979829 -.00000028  00000-0  16874-5 0  7192
2 20480  99.0344 136.7153 0540837  95.2618 271.0403 12.83341913686922
RS-12/13
1 21089U 91007A   04280.90681343  .00000025  00000-0  98558-5 0  7417
2 21089  82.9180  98.8622 0030943  65.2718 295.1659 13.74441167685704
RS-15
1 23439U 94085A   04278.97246186 -.00000039  00000-0  10597-3 0 08189
2 23439 064.8170 160.2900 0156078 001.5715 358.5670 11.27549878402612
FO-29
1 24278U 96046B   04281.21257794 -.00000003  00000-0  29738-4 0  8075
2 24278  98.5818 358.4913 0351376 111.5157 252.3819 13.52903700401985
SO-33
1 25509U 98061B   04280.61738129  .00000056  00000-0  29343-7 0  2101
2 25509  31.4291  25.7471 0355371 109.9276 253.9988 14.27869536310556
AO-40
1 26609U 00072B   04279.33167181  .00000000  00000-0  10000-3 0  4432
2 26609   9.6387 340.2210 7963961 326.4169   2.7217  1.25582192 18050
UO-14
1 20437U 90005B   04281.49685789  .00000097  00000-0  51891-4 0  6093
2 20437  98.2063 299.2564 0009960 223.4848 136.5567 14.31373913767882
AO-16
1 20439U 90005D   04280.70887937  .00000024  00000-0  24168-4 0  2966
2 20439  98.2363 313.2171 0010054 234.9124 125.1109 14.31631551767823
WO-18
1 20441U 90005F   04281.49550351  .00000025  00000-0  24854-4 0  4856
2 20441  98.2509 318.0431 0010638 232.6757 127.3461 14.31706870767995
LO-19
1 20442U 90005G   04281.54384248  .00000037  00000-0  28999-4 0  2331
2 20442  98.2620 322.1947 0010972 232.8373 127.1816 14.31878516768063
UO-22
1 21575U 91050B   04281.46125198  .00000110  00000-0  48568-4 0  2222
2 21575  98.2078 250.8522 0008299 127.3717 232.8240 14.39418550694141
KO-23
1 22077U 92052B   04278.91323943 -.00000037  00000-0  10000-3 0 02988
2 22077 066.0887 321.0617 0009866 315.3757 044.6469 12.86425654570755
AO-27
1 22825U 93061C   04280.46587801 -.00000044  00000-0 -13796-5 0  9554
2 22825  98.2453 283.5513 0007352 297.4053  62.6382 14.29086854574983
IO-26
1 22826U 93061D   04281.02991026  .00000028  00000-0  26879-4 0  6301
2 22826  98.2437 285.3696 0008326 297.0723  62.9606 14.29324428575121
KO-25
1 22828U 93061F   04280.59312312 -.00000023  00000-0  67461-5 0  8917
2 22828  98.2355 285.1889 0008816 267.1249  92.8904 14.29643776543284
TO-31
1 25396U 98043C   04281.53699582 -.00000043  00000-0  00000 0 0   821
2 25396  98.5642 349.9526 0002601 172.8241 187.2975 14.23636018324465
GO-32
1 25397U 98043D   04281.51699222  .00000111  00000-0  68221-4 0  5768
2 25397  98.5553 347.9166 0001329 168.8543 191.2665 14.23053762324393
UO-36
1 25693U 99021A   04281.76515492  .00000134  00000-0  37797-4 0  5216
2 25693  64.5609 338.8614 0045634 244.5806 115.0571 14.78392268294501
SO-41
1 26545U 00057A   04280.72039916  .00000387  00000-0  69896-4 0  8950
2 26545  64.5608 358.2098 0021422 351.7475   8.3309 14.79870585217413
MO-46
1 26548U 00057D   04281.44525122  .00000255  00000-0  49851-4 0  9967
2 26548  64.5602 341.7450 0021943 334.1408  25.8521 14.82423763217818
SO-42
1 26549U 00057E   04279.70756341  .00000147  00000-0  39098-4 0  9640
2 26549  64.5554   8.5726 0021267   5.2599 354.8727 14.78760767217125
NO-44
1 26931U 01043C   04281.85901939  .00000011  00000-0  36631-4 0  8688
2 26931  67.0534 157.6450 0006846 269.9671  90.0593 14.29325960157707
AO-49
1 27605U 02058A   04281.74050687  .00000240  00000-0  58158-4 0  5552
2 27605  64.5580 182.8219 0083460 289.3394  69.8705 14.71940410 96696
SO-50
1 27607U 02058C   04281.24823242  .00000327  00000-0  72962-4 0  5368
2 27607  64.5586 188.5442 0084508 288.3402  70.8522 14.70738093 96531
AO-51
1 28375U 04025K   04281.20923119  .00000081  00000-0  37948-4 0   780
2 28375  98.2478 347.3230 0083362 275.2927  83.8751 14.40393124 14191
NOAA-10
1 16969U 86073A   04281.45901179  .00000082  00000-0  51788-4 0  4219
2 16969  98.7614 280.6840 0012923 145.4246 214.7780 14.27215352939045
NOAA-11
1 19531U 88089A   04281.45798997 -.00000250  00000-0 -10664-3 0  2784
2 19531  98.8606   4.5905 0010883 309.2409  50.7793 14.14729395827191
NOAA-12
1 21263U 91032A   04281.48319399  .00000154  00000-0  83981-4 0  7654
2 21263  98.6808 268.1097 0013789  84.8229 275.4524 14.25416084696240
MET-3/5
1 21655U 91056A   04279.90561309  .00000051  00000-0  10000-3 0  6543
2 21655  82.5586 338.3057 0013488 144.6289 215.5730 13.16996166631845
MET-2/21
1 22782U 93055A   04281.08882649  .00000004  00000-0 -10392-4 0   235
2 22782  82.5442 101.7622 0023557 111.9285 248.4382 13.83570381560579
OKEAN-4
1 23317U 94066A   04281.57222904  .00000422  00000-0  50172-4 0  4506
2 23317  82.5397 132.8963 0020962 248.3453 111.5533 14.81897711538497
NOAA-14
1 23455U 94089A   04281.52006802  .00000390  00000-0  23186-3 0  3042
2 23455  99.1280 319.2620 0009250 357.3409   2.7713 14.13495133503800
SICH-1
1 23657U 95046A   04281.22176549  .00000399  00000-0  48416-4 0  2540
2 23657  82.5257 274.0173 0022620 232.2061 127.7104 14.80930502490519
NOAA-15
1 25338U 98030A   04281.48461747  .00000048  00000-0  39000-4 0  7555
2 25338  98.5200 291.4774 0010999  21.8563 338.3084 14.24455237332772
RESURS
1 25394U 98043A   04281.90016785  .00000021  00000-0  27695-4 0  9185
2 25394  98.5714 351.8896 0002090 141.8518 218.2809 14.24025725324548
FENGYUN1
1 25730U 99025A   04281.47738427 -.00000258  00000-0 -11855-3 0  2509
2 25730  98.6065 287.4260 0015546 100.9050 259.3873 14.11778967278856
OKEAN-0
1 25860U 99039A   04281.56900273  .00000141  00000-0  29258-4 0  2582
2 25860  97.7879 312.2129 0001011  40.5827 319.5456 14.73122451280811
NOAA-16
1 26536U 00055A   04281.49510619  .00000420  00000-0  25308-3 0   518
2 26536  98.9754 232.9922 0011271  63.3013 296.9305 14.12160206208392
NOAA-17
1 27453U 02032A   04281.48160932  .00000014  00000-0  25451-4 0   768
2 27453  98.6897 352.4747 0012636  70.9396 289.3150 14.23576187118882
HUBBLE
1 20580U 90037B   04280.88293501  .00001102  00000-0  74869-4 0  1729
2 20580  28.4655 118.8179 0003566 111.4260 248.6710 14.99335269592181
UARS
1 21701U 91063B   04281.71100619  .00000194  00000-0  32698-4 0  2821
2 21701  56.9788 133.3782 0004367 111.4335 248.7090 15.03633532715511
PO-34
1 25520U 98064B   04280.21113027  .00001360  00000-0  59471-4 0   263
2 25520  28.4602 209.7069 0005571 344.9722  15.0712 15.15771654328001
ISS
1 25544U 98067A   04281.97340521  .00016355  00000-0  14432-3 0  8598
2 25544  51.6349 110.1997 0009656 197.6066 298.1431 15.68812867336034
OO-38
1 26063U 00004C   04280.52376664  .00000065  00000-0  42768-4 0  1785
2 26063 100.2265  87.8695 0037264  49.2856 311.1550 14.35671213245891
NO-45
1 26932U 01043D   04281.49724303 -.00000064  00000-0  71617-5 0  8635
2 26932  67.0575 158.2226 0005873 287.1525  72.8932 14.29444525157681


Read previous mail | Read next mail


 18.06.2026 07:17:02lGo back Go up